Location: Unspecified
(35.6961°N, 0.0000°E)
Time: 04:05:27
(UTC+00:00)

Explorer 11/Cluster Stage 4 - Pass Details

Date: 24 May 2019
Orbit: 467 x 1260 km, 28.8° (Epoch: 16 June)

Event Time Altitude Azimuth Distance (km) Brightness Sun altitude
Rises 01:36:40 0° 219° (SW) 3,580 - -28.9°
Reaches altitude 10° 01:40:27 10° 200° (SSW) 2,457 - -28.5°
Maximum altitude 01:43:59 17° 162° (SSE) 1,864 - -28.2°
Drops below altitude 10° 01:47:08 10° 123° (ESE) 2,127 - -27.9°
Exits shadow 01:47:56 - 116° (ESE) 2,302 9.0 -27.8°
Sets 01:50:04 0° 102° (ESE) 2,896 9.7 -27.6°
